Main page
METAR-TAF:

METAR-TAF

Airports :

Barbacena, Minas Gerais, Brazil

latitude: 21-15S, longitude: 043-46W, elevation: 1171 m

Current weather observation

The report was made 1 hour and 10 minutes ago, at 19:00 UTC
Wind 7 kt from the East
Temperature 24°C
Humidity 65%
Pressure 1021 hPa
Visibility 10 km or more
Scattered clouds at a height of 4000 ft

METAR: SBBQ 241900Z 08007KT 9999 SCT040 24/17 Q1021

Time: 17:10 (20:10 UTC)


TAF: missing

Weather observations and forecasts of more than 4000 airports (METAR and TAF reports).

The available stations are represented by yellow and red dots on the map.

Hover mouse over dot to see the name of the station.

Then click to see weather observations and forecasts.

To change the map : click on the green buttons with a black cross to zoom in, on the green button with a dash to zoom out, or on the green arrows for adjacent maps.


METAR-TAF: